User: anonymous   Login
Location: Balaclava NSW 2575, Australia
(34.4510°S, 150.4953°E)
Time: 06:14:24
(UTC+10:00)
Language:

Tiros 1 despin weight - Orbit

View from above orbital plane
View from above orbital plane
View from above satellite
View from above satellite

Ground track
Ground track

The orbit data is extracted from the following two-line orbital elements,

1 00115U 60002D   21163.68578431  .00000008  00000-0  28083-4 0  9993
2 00115  48.1675 341.7858 0034128  36.4788 323.8441 14.83776722245306
Epoch (UTC): 12 June 2021 16:27:31
Eccentricity: 0.0034128
inclination: 48.1675°
perigee height: 593 km
apogee height: 641 km
right ascension of ascending node: 341.7858°
argument of perigee: 36.4788°
revolutions per day: 14.83776722
mean anomaly at epoch: 323.8441°
orbit number at epoch: 24530

The dashed part of the orbit path shows where the satellite is in the earth's shadow,  

DLR